Location: Unspecified
(0.0000°N, 0.0000°E)
Time: 10:12:20
(UTC+00:00)

STARLINK-1056 - Pass Details

Date: 12 December 2019
Orbit: 549 x 550 km, 53.0° (Epoch: 12 August)

Event Time Altitude Azimuth Distance (km) Brightness Sun altitude
Rises 18:54:39 0° 189° (S) 2,680 7.6 -14.0°
Reaches altitude 10° 18:57:24 10° 170° (S) 1,790 6.4 -14.6°
Maximum altitude 19:00:15 19° 125° (SE) 1,335 5.3 -15.3°
Enters shadow 19:00:55 18° 112° (ESE) 1,363 5.2 -15.4°
